NIMBUS 2 DEB, 28978

Orbit data source: Space-Track

NIMBUS 2 DEB, 28978 is space debris in SSO originally from a launch on Sun, 15 May 1966 UTC launched from the Air Force Western Test Range (AFWTR). Debris objects in space refer to the collection of defunct objects orbiting the Earth. Examples of debris include non-operational satellites, rocket bodies, and fragments generated from explosions, collisions, or faulty payload assembly.

Loading next visibility...
Identifier
28978, 1966-040AP
Orbit
SSO
Country
Flag of USUS
Related business
Manufacturer
Unknown
Mission
Spacecraft
Bus & Motor
Unknown
Mass
Unknown
Launch date (UTC)
1966-05-15 (59 years ago)
Launch vehicle
Unknown
Launch site
Air Force Western Test Range (AFWTR)
Object type
Payload
Rocket body
Debris
Shape & HBR
Unknown shape, 0.1 m
Radar Cross Section
Small (<0.1 m²)

Expand to show TLE details & history
Last TLE update: 2 days ago

TLE from 2 days ago
0 NIMBUS 2 DEB
1 28978U 66040AP  25302.73188653  .00002442  00000-0  38010-2 0  9999
2 28978 100.3739 222.6408 0040503 226.7123 162.6772 13.51542880898786
Epoch: 2025-10-29T17:33Z
TLE epoch observation values (Epoch: 2025-10-29T17:33:54.996Z)
Latitude
29.04471°
Longitude
-84.94399°
Altitude
1,098.859 km
Speed
7.291 km/s
True Right ascension
14h 27m 20s
True Declination
28° 54' 20"
Sunlit
Object was in daylight at epoch
Visualization orbit readout
Latitude
Unknown
Longitude
Unknown
Altitude
Unknown
Speed
Unknown
Apparent Right ascension
Unknown
Apparent Declination
Unknown
Sunlit
N/A
Visualization observer readout
Local Sidereal Time
07:31:26
Azimuth
Unknown
Elevation
Unknown
Doppler factor
Unknown
Orbital elements
Apogee altitude
1,094.065 km
Perigee altitude
1,033.78 km
Semi-major axis
7,442.059 km
Eccentricity
0.00405
Inclination
100.3739°
RAAN
222.6408°
Arg. of periapsis
226.7123°
True anomaly
162.81473°
Mean anomaly
162.6772°
Eccentric anomaly
162.74603°
Mean motion
3.38068 °/min
Orbital period
106.49 mins
BSTAR
0.003801
Loading maneuver chart data...
Computing Atmospheric mass density...
Loading historical data...
Loading historical data...
Loading historical data...
Loading historical data...
Loading historical data...
Loading historical data...
Loading historical data...

Documentation

Showing up to 5 results
|